Location: Champseau
(45.8333°N, 1.7667°E)
Time: 05:15:49
(UTC+00:00)

Meteor 2-8 Rocket - Pass Details

Date: 18 April 2021
Orbit: 935 x 959 km, 82.5° (Epoch: 15 May)

Event Time Altitude Azimuth Distance (km) Brightness Sun altitude
Exits shadow 21:42:18 58° 186° (S) 1,107 4.5 -26.0°
Maximum altitude 21:43:39 89° 101° (E) 961 4.3 -26.1°
Drops below altitude 10° 21:49:49 10° 9° (N) 2,686 7.4 -26.7°
Sets 21:52:19 0° 10° (N) 3,632 8.2 -27.0°
